Crosby, ND

4:50 PM CST on November 16, 2019 (GMT -0600)
Crosby

Weather History for KD50 - September, 2019

Change the Weather History Date:

Saturday, September 28, 2019

  Actual Average (WUND) Record (WUND)
Temperature  
Mean Temperature 38 °F -  
Max Temperature 46 °F - - (-1)
Min Temperature 30 °F - - (-1)
Degree Days  
Heating Degree Days 27    
Moisture  
Dew Point 36 °F    
Average Humidity 92    
Maximum Humidity 100    
Minimum Humidity 71    
Precipitation  
Precipitation 0.00 in - - ()
Sea Level Pressure  
Sea Level Pressure 30.18 in    
Wind  
Wind Speed 9 mph (NE)    
Max Wind Speed 22 mph    
Max Gust Speed 28 mph    
Visibility 8 miles    
Events Fog , Rain    
Averages and records for this station are not official NWS values.
T = Trace of Precipitation, MM = Missing Value Source: NWS Daily Summary

Daily Weather History Graph

Daily Weather History Graph

Search for Another Location

Airport or City:

Astronomy

Sep. 28, 2019 Rise Set
Actual Time 7:48 AM CDT 7:38 PM CDT
Civil Twilight 7:16 AM CDT 8:10 PM CDT
Nautical Twilight 6:39 AM CDT 8:46 PM CDT
Astronomical Twilight 6:01 AM CDT 9:24 PM CDT
Moon 7:20 AM CDT (9/28) 8:08 PM CDT (9/28)
Length of Visible Light 12h 53m
Length of Day
11h 50m
Waning Crescent, 0% of the Moon is Illuminated
Sep 28
Waning Crescent
Sep 28
New
Oct 5
First Quarter
Oct 13
Full
Oct 21
Last Quarter

Hourly Weather History & Observations

Time (CDT) Temp. Windchill Dew Point Humidity Pressure Visibility Wind Dir Wind Speed Gust Speed Precip Events Conditions
12:15 AM 41.0 °F 38.0 °F 41.0 °F 100% 30.09 in 10.0 mi North 4.6 mph - N/A   Overcast
12:35 AM 41.0 °F 37.1 °F 41.0 °F 100% 30.08 in 10.0 mi North 5.8 mph - N/A   Overcast
12:55 AM 39.2 °F 35.9 °F 39.2 °F 100% 30.09 in 10.0 mi NNW 4.6 mph - N/A   Overcast
1:15 AM 39.2 °F 35.0 °F 39.2 °F 100% 30.09 in 10.0 mi NNW 5.8 mph - N/A   Overcast
1:35 AM 37.4 °F 33.8 °F 37.4 °F 100% 30.10 in 10.0 mi NNW 4.6 mph - N/A   Scattered Clouds
1:55 AM 35.6 °F 31.7 °F 35.6 °F 100% 30.10 in 10.0 mi NW 4.6 mph - N/A   Clear
2:15 AM 33.8 °F 30.8 °F 33.8 °F 100% 30.11 in 10.0 mi WNW 3.5 mph - N/A   Clear
2:35 AM 33.8 °F 29.6 °F 33.8 °F 100% 30.12 in 10.0 mi NW 4.6 mph - N/A   Scattered Clouds
2:55 AM 32.0 °F 24.8 °F 32.0 °F 100% 30.12 in 10.0 mi NW 8.1 mph - N/A   Partly Cloudy
3:15 AM 32.0 °F 25.6 °F 32.0 °F 100% 30.13 in 10.0 mi NW 6.9 mph - N/A   Clear
3:35 AM 32.0 °F 24.2 °F 32.0 °F 100% 30.13 in 9.0 mi NW 9.2 mph - N/A   Clear
3:55 AM 32.0 °F 26.4 °F 32.0 °F 100% 30.14 in 8.0 mi NW 5.8 mph - N/A   Clear
4:15 AM 32.0 °F 28.7 °F 32.0 °F 100% 30.14 in 8.0 mi West 3.5 mph - N/A   Partly Cloudy
4:35 AM 32.0 °F 26.4 °F 32.0 °F 100% 30.15 in 7.0 mi NW 5.8 mph - N/A   Clear
4:55 AM 30.2 °F 25.4 °F 30.2 °F 100% 30.14 in 8.0 mi NW 4.6 mph - N/A   Scattered Clouds
5:15 AM - - - N/A% 30.15 in 6.0 mi NW 5.8 mph - N/A   Mostly Cloudy
5:35 AM 30.2 °F - 30.2 °F 100% 30.16 in 6.0 mi Calm Calm - N/A   Overcast
5:55 AM 32.0 °F - 32.0 °F 100% 30.17 in 8.0 mi Calm Calm - N/A   Overcast
6:15 AM 30.2 °F - 30.2 °F 100% 30.18 in 7.0 mi Calm Calm - N/A   Mostly Cloudy
6:35 AM 32.0 °F - 32.0 °F 100% 30.19 in 7.0 mi Calm Calm - N/A   Overcast
6:55 AM 30.2 °F 24.3 °F 30.2 °F 100% 30.19 in 0.2 mi North 5.8 mph - N/A Fog Light Freezing Fog
7:15 AM 30.2 °F 26.7 °F 30.2 °F 100% 30.20 in 0.2 mi North 3.5 mph - N/A Fog Light Freezing Fog
7:35 AM 30.2 °F 25.4 °F 30.2 °F 100% 30.21 in 1.5 mi East 4.6 mph - N/A   Clear
7:55 AM 30.2 °F - 30.2 °F 100% 30.22 in 8.0 mi Calm Calm - N/A   Clear
8:15 AM 30.2 °F 25.4 °F 30.2 °F 100% 30.23 in 8.0 mi NNE 4.6 mph - N/A   Mostly Cloudy
8:35 AM 30.2 °F 23.4 °F 30.2 °F 100% 30.24 in 10.0 mi NNE 6.9 mph - N/A   Overcast
8:55 AM 32.0 °F 25.6 °F 32.0 °F 100% 30.25 in 10.0 mi NNE 6.9 mph - N/A   Overcast
9:15 AM 33.8 °F 27.0 °F 33.8 °F 100% 30.25 in 10.0 mi NE 8.1 mph - N/A   Overcast
9:35 AM 33.8 °F 27.0 °F 33.8 °F 100% 30.26 in 10.0 mi NE 8.1 mph - N/A   Overcast
9:55 AM 33.8 °F 25.8 °F 33.8 °F 100% 30.26 in 10.0 mi NE 10.4 mph - N/A   Overcast
10:15 AM 35.6 °F 27.1 °F 35.6 °F 100% 30.25 in 10.0 mi NE 12.7 mph - N/A   Overcast
10:35 AM 35.6 °F 26.2 °F 35.6 °F 100% 30.24 in 10.0 mi ENE 15.0 mph - N/A   Overcast
10:55 AM 37.4 °F 27.8 °F 35.6 °F 93% 30.23 in 10.0 mi ENE 17.3 mph - N/A   Mostly Cloudy
11:15 AM 37.4 °F 27.5 °F 35.6 °F 93% 30.23 in 10.0 mi ENE 18.4 mph - N/A   Mostly Cloudy
11:55 AM 39.2 °F 30.2 °F 35.6 °F 87% 30.23 in 10.0 mi ENE 17.3 mph - N/A   Overcast
12:15 PM 39.2 °F 30.5 °F 37.4 °F 93% 30.24 in 10.0 mi ENE 16.1 mph - N/A   Overcast
12:35 PM 41.0 °F 33.9 °F 37.4 °F 87% 30.24 in 10.0 mi ENE 12.7 mph 19.6 mph N/A   Overcast
12:55 PM 41.0 °F 32.8 °F 37.4 °F 87% 30.24 in 10.0 mi East 16.1 mph - N/A   Overcast
1:15 PM 41.0 °F 33.5 °F 37.4 °F 87% 30.24 in 10.0 mi East 13.8 mph - N/A   Overcast
1:35 PM 41.0 °F 33.5 °F 37.4 °F 87% 30.23 in 10.0 mi ENE 13.8 mph - N/A   Overcast
1:55 PM 42.8 °F 35.8 °F 37.4 °F 81% 30.23 in 10.0 mi East 13.8 mph - N/A   Overcast
2:15 PM 44.6 °F 36.9 °F 37.4 °F 76% 30.22 in 10.0 mi ENE 18.4 mph - N/A   Overcast
2:35 PM 44.6 °F 37.2 °F 37.4 °F 76% 30.21 in 10.0 mi East 17.3 mph - N/A   Overcast
3:15 PM 44.6 °F 37.2 °F 37.4 °F 76% 30.20 in 10.0 mi East 17.3 mph - N/A   Overcast
3:35 PM 44.6 °F 36.9 °F 37.4 °F 76% 30.19 in 10.0 mi East 18.4 mph 25.3 mph N/A   Overcast
3:55 PM 44.6 °F 37.4 °F 37.4 °F 76% 30.19 in 10.0 mi ENE 16.1 mph - N/A   Overcast
4:15 PM 46.4 °F 39.8 °F 37.4 °F 71% 30.18 in 10.0 mi East 16.1 mph 24.2 mph N/A   Overcast
4:35 PM 44.6 °F 38.1 °F 37.4 °F 76% 30.18 in 10.0 mi East 13.8 mph 24.2 mph N/A   Overcast
4:55 PM 44.6 °F 37.8 °F 37.4 °F 76% 30.17 in 10.0 mi ENE 15.0 mph 23.0 mph N/A   Overcast
5:15 PM 44.6 °F 37.2 °F 37.4 °F 76% 30.17 in 10.0 mi ENE 17.3 mph 24.2 mph N/A   Overcast
5:35 PM 44.6 °F 37.4 °F 35.6 °F 71% 30.16 in 10.0 mi ENE 16.1 mph 24.2 mph N/A   Overcast
5:55 PM 44.6 °F 36.6 °F 35.6 °F 71% 30.15 in 10.0 mi ENE 19.6 mph - N/A   Overcast
6:15 PM 44.6 °F 36.9 °F 35.6 °F 71% 30.15 in 10.0 mi ENE 18.4 mph - N/A   Mostly Cloudy
6:35 PM 44.6 °F 36.1 °F 35.6 °F 71% 30.15 in 10.0 mi ENE 21.9 mph - N/A   Partly Cloudy
6:55 PM 44.6 °F 36.9 °F 35.6 °F 71% 30.14 in 10.0 mi ENE 18.4 mph 25.3 mph N/A   Mostly Cloudy
7:15 PM 44.6 °F 36.9 °F 35.6 °F 71% 30.14 in 10.0 mi ENE 18.4 mph 27.6 mph N/A   Overcast
7:35 PM 42.8 °F 34.3 °F 37.4 °F 81% 30.14 in 9.0 mi ENE 19.6 mph 27.6 mph N/A   Overcast
7:55 PM 42.8 °F 34.0 °F 37.4 °F 81% 30.14 in 8.0 mi ENE 20.7 mph 27.6 mph N/A   Overcast
8:15 PM 41.0 °F 31.9 °F 37.4 °F 87% 30.15 in 7.0 mi ENE 19.6 mph 25.3 mph N/A Rain Light Rain
8:35 PM 41.0 °F 32.5 °F 39.2 °F 93% 30.16 in 7.0 mi ENE 17.3 mph 24.2 mph N/A Rain Light Rain
8:55 PM 41.0 °F 32.2 °F 39.2 °F 93% 30.15 in 6.0 mi ENE 18.4 mph - N/A Rain Light Rain
9:15 PM 41.0 °F 32.5 °F 39.2 °F 93% 30.15 in 5.0 mi ENE 17.3 mph 24.2 mph N/A Rain Light Rain
9:35 PM 39.2 °F 30.8 °F 39.2 °F 100% 30.16 in 6.0 mi ENE 15.0 mph 21.9 mph N/A Rain Light Rain
9:55 PM 39.2 °F 30.8 °F 39.2 °F 100% 30.17 in 9.0 mi East 15.0 mph - N/A   Overcast
10:15 PM 39.2 °F 30.8 °F 39.2 °F 100% 30.17 in 5.0 mi East 15.0 mph 20.7 mph N/A Rain Light Rain
10:35 PM 39.2 °F 31.2 °F 39.2 °F 100% 30.19 in 4.0 mi East 13.8 mph - N/A Rain Light Rain
10:55 PM 39.2 °F 31.2 °F 39.2 °F 100% 30.19 in 4.0 mi East 13.8 mph - N/A Rain Light Rain
11:15 PM 39.2 °F 31.2 °F 39.2 °F 100% 30.19 in 4.0 mi East 13.8 mph - N/A Rain Light Rain
11:35 PM 39.2 °F 29.8 °F 39.2 °F 100% 30.18 in 5.0 mi ENE 18.4 mph - N/A Rain Light Rain
11:55 PM 39.2 °F 30.2 °F 39.2 °F 100% 30.17 in 5.0 mi East 17.3 mph - N/A Rain Light Rain